Location: Antoign�
(47.0844°N, 0.1131°W)
Time: 19:01:16
(UTC+00:00)

USA 307 - Pass Details

Date: 03 March 2021
Orbit: 567 x 577 km, 54.0° (Epoch: 13 April)

Event Time Altitude Azimuth Distance (km) Brightness Sun altitude
Rises 19:55:20 0° 291° (WNW) 2,785 7.9 -22.1°
Reaches altitude 10° 19:57:46 10° 301° (WNW) 1,884 6.6 -22.5°
Maximum altitude 20:01:40 33° 7° (N) 970 4.1 -23.2°
Enters shadow 20:02:01 33° 18° (NNE) 980 4.0 -23.2°
